RH
33 33 34 33 32 31 30 29 28 32 38 47 56 60 64 69 68 66 65 64 67 71 79 83 81 78 77 79 82 81 82 84 81 72 66 62 55 46 50 67 87 96 96 94 92 93 91 88 88 88 85 78 73 70 63 59 63 65 69 76 80 79 72 63 62 63 64 70 79 90 97 100 101 100 96 93 93 94 96 97 95 93 92 90 84
35 34 34 32 31 29 28 28 27 32 39 48 57 62 66 70 69 69 66 65 66 68 72 78 80 81 82 82 85 89 89 88 87 83 71 62 56 46 40 50 73 91 97 97 96 94 92 87 83 83 85 81 75 68 60 56 63 68 69 73 79 81 77 74 70 65 58 60 74 90 99 100 101 99 97 96 95 97 98 97 95 93 91 86 82
36 35 34 31 30 29 28 28 28 37 48 58 66 69 71 73 72 71 68 66 69 69 68 71 74 79 82 84 85 89 95 94 90 88 80 66 57 48 36 40 64 86 92 95 97 94 94 91 81 79 85 84 76 67 59 57 63 70 73 72 73 78 80 78 76 71 63 58 65 83 96 100 101 99 98 98 98 98 98 96 96 94 88 83 80
35 34 33 31 31 30 28 30 40 54 66 72 75 74 74 75 74 73 70 67 69 70 70 70 72 73 76 81 83 84 92 94 91 93 90 75 61 53 41 33 52 80 90 92 95 95 98 95 82 79 85 85 78 68 59 59 64 72 77 73 69 75 81 81 78 76 69 61 63 80 94 98 100 100 99 100 100 99 97 94 94 90 83 79 75
35 33 31 29 28 27 32 46 64 75 79 79 78 77 77 77 76 76 73 69 68 71 73 75 76 73 69 71 77 80 86 91 89 92 97 88 69 57 49 34 40 70 92 97 97 97 98 94 84 80 85 85 77 68 61 60 66 74 79 76 73 76 81 83 82 81 74 63 62 78 96 100 99 100 100 100 99 98 94 91 88 85 79 74 66
33 30 28 26 25 30 46 67 82 85 85 85 82 80 80 80 78 78 78 76 73 73 73 75 78 77 69 66 69 73 80 86 88 89 97 97 80 63 55 42 37 59 87 99 99 99 98 93 85 82 84 83 73 64 62 63 68 75 79 79 78 79 81 84 86 86 78 68 63 71 88 99 100 100 100 100 100 99 94 89 83 78 73 66 56
31 28 25 23 26 40 61 80 90 92 90 90 88 84 82 81 79 77 78 80 79 76 74 74 77 79 76 71 69 70 74 79 85 90 96 100 91 73 62 53 46 57 82 95 97 97 96 92 87 80 78 77 68 60 61 64 69 75 78 79 79 79 80 83 88 88 79 72 70 68 75 91 100 100 100 99 98 95 92 89 84 77 71 62 53
31 26 20 18 28 51 74 88 94 96 95 92 89 86 83 82 80 78 78 81 82 81 78 77 78 80 81 79 76 75 77 78 83 90 95 100 98 81 65 58 54 61 80 93 95 96 94 90 86 76 68 67 63 59 60 64 68 74 77 78 76 76 79 82 87 89 79 73 75 73 73 83 94 99 101 100 95 90 89 86 80 74 67 59 50
28 22 16 20 40 67 86 95 97 98 96 91 87 85 83 83 82 80 80 81 83 84 83 81 82 84 85 88 86 82 81 82 85 90 92 98 99 85 66 59 56 63 79 91 95 97 95 88 83 75 64 59 59 60 61 63 68 74 77 76 73 75 80 83 86 88 82 75 74 76 77 80 86 92 95 97 97 94 91 86 77 66 57 49 43
25 19 17 32 62 86 96 99 101 98 92 87 85 84 82 81 81 81 81 83 84 86 86 85 87 92 94 96 97 93 86 82 84 88 89 96 100 89 73 63 58 60 76 90 96 99 96 88 81 75 67 61 61 63 63 63 68 72 74 72 71 74 80 84 87 85 81 77 74 75 77 77 78 83 85 90 96 96 93 88 79 69 60 50 41
26 19 27 54 83 98 100 100 100 94 87 85 84 82 81 81 81 81 82 85 87 88 88 86 89 96 100 100 102 101 92 84 84 86 87 93 100 95 81 71 66 67 78 90 96 98 95 88 78 71 67 65 65 66 67 67 69 71 71 69 69 72 74 79 84 82 78 78 78 76 76 73 75 81 85 88 92 94 92 85 77 71 63 53 42
26 24 46 79 97 100 100 99 96 90 86 85 84 83 85 85 84 84 84 87 89 90 90 88 89 96 101 100 101 99 93 89 88 85 86 93 100 100 91 78 72 75 84 91 96 98 96 89 79 72 69 68 67 69 72 73 72 71 71 69 69 71 70 72 76 74 70 74 79 79 74 72 75 80 83 85 87 89 86 79 74 68 57 48 40
27 40 71 95 100 98 97 93 88 85 85 87 88 90 92 89 86 85 85 87 91 92 90 88 89 95 101 101 99 94 88 90 89 82 84 94 99 101 98 87 77 80 91 98 98 98 97 91 83 76 71 68 67 72 77 76 72 71 71 72 73 74 74 75 76 73 68 70 75 74 69 71 78 79 78 80 82 83 81 76 69 60 50 43 33
33 63 91 97 93 91 90 87 85 87 91 94 96 97 95 91 86 84 84 86 92 93 91 89 89 95 99 100 99 94 86 87 87 79 83 95 100 100 101 96 88 88 96 100 100 98 96 91 82 72 67 66 69 76 80 77 72 70 70 73 77 78 79 82 82 80 76 73 73 71 69 74 81 80 76 76 77 77 74 67 58 50 44 35 20
47 83 96 91 89 90 90 90 92 96 98 99 100 99 96 91 84 83 84 85 88 91 91 93 95 96 97 99 101 99 91 86 83 80 85 95 99 100 101 98 95 96 96 96 98 98 90 81 74 68 62 60 65 76 81 75 70 70 71 75 80 80 82 84 84 82 79 76 76 77 77 80 80 77 75 74 72 66 58 52 46 40 30 17 6
62 93 94 89 92 95 96 95 95 98 100 100 100 97 94 89 83 83 85 84 85 87 88 95 101 99 96 99 102 100 94 87 82 82 88 94 97 100 101 97 96 98 97 93 93 91 79 67 67 66 60 57 61 73 79 73 69 72 75 78 80 80 83 86 86 83 80 79 79 79 79 79 76 73 70 66 60 53 48 44 37 24 12 4 2
68 93 93 93 96 97 98 94 92 97 100 100 98 94 90 89 85 85 87 84 82 83 84 93 101 101 100 102 102 100 94 87 83 85 90 93 94 99 100 97 94 96 98 97 94 87 72 62 65 65 58 56 62 71 77 73 70 73 75 77 78 80 83 83 82 81 80 76 72 68 68 69 67 63 59 52 48 46 42 34 22 10 3 3 3
65 87 94 97 97 97 97 92 91 99 100 98 96 93 93 94 91 91 94 89 82 79 81 87 94 100 102 100 100 100 95 85 80 83 90 91 91 95 98 98 96 95 99 100 93 82 68 63 67 66 57 56 62 69 74 74 71 70 70 71 73 74 74 73 74 78 74 65 57 55 56 57 55 52 49 44 42 37 27 15 7 3 3 4 4
59 83 95 96 94 96 97 91 93 100 99 96 97 98 99 99 97 97 99 96 86 77 76 80 86 96 100 98 96 96 90 80 73 78 89 91 87 88 94 99 98 95 99 99 87 77 72 72 77 78 74 73 73 73 75 74 70 66 64 63 62 63 67 69 69 69 64 53 47 47 47 46 44 42 39 34 27 18 9 3 3 3 4 4 4
57 83 95 92 86 91 95 93 96 101 99 97 99 100 100 100 99 99 100 99 93 86 83 83 88 96 100 99 99 94 84 75 70 74 88 93 87 85 92 101 100 94 97 98 86 76 78 82 86 88 86 82 78 75 74 73 69 64 60 59 57 57 63 67 64 59 54 48 43 41 39 38 36 32 25 17 10 5 3 3 4 4 4 4 4
63 90 97 87 76 82 92 94 97 100 99 99 100 99 100 101 100 100 100 100 98 97 96 94 96 100 100 100 102 94 82 77 74 76 89 97 92 85 87 98 102 96 97 98 88 80 83 87 89 86 80 76 77 75 74 73 70 65 61 59 58 57 58 60 58 53 49 45 40 37 35 32 26 18 10 5 3 3 4 5 5 5 5 4 3
68 93 98 84 69 74 88 91 93 99 99 99 100 98 97 99 99 100 100 100 99 100 101 100 100 101 100 101 102 96 85 80 79 83 93 100 98 90 86 94 101 100 99 97 90 86 88 87 85 81 76 76 80 77 74 74 72 67 63 61 60 59 57 56 54 49 45 42 38 34 30 22 13 7 3 3 4 5 5 5 4 4 4 3 3
62 86 95 84 66 69 84 87 87 95 99 98 98 98 98 98 99 100 101 100 100 99 100 101 101 101 101 101 101 99 94 88 86 90 96 100 100 99 96 96 100 100 96 93 89 89 88 84 82 80 77 75 75 73 72 73 71 69 67 64 61 59 57 55 53 48 42 39 34 27 19 11 5 3 4 5 5 5 5 5 4 3 3 3 4
50 71 86 82 64 65 83 88 84 89 96 98 96 97 99 98 97 99 100 99 99 100 100 101 101 101 101 101 101 101 101 99 96 97 99 100 100 100 100 99 102 100 91 84 83 85 85 83 80 77 74 73 74 73 71 72 73 72 70 65 61 60 58 54 50 45 38 33 25 16 9 5 4 4 5 5 5 5 5 4 3 4 4 3 4
40 53 70 75 66 65 79 88 86 85 92 98 98 97 99 99 97 98 98 96 97 100 100 100 100 101 101 101 101 101 102 103 102 100 100 101 100 100 100 98 100 98 87 80 82 82 81 80 79 77 77 78 78 75 71 72 74 70 65 61 58 56 55 51 45 38 30 22 13 7 4 5 5 5 5 5 5 5 4 4 4 4 4 4 4
38 46 58 68 69 68 76 87 90 87 87 94 99 99 98 99 98 100 99 96 94 98 100 100 100 101 101 101 101 101 101 102 102 101 101 100 100 101 101 99 100 97 85 81 85 82 78 79 79 80 82 81 76 71 66 65 63 58 54 54 51 48 47 42 34 26 18 10 6 4 5 5 6 5 5 5 5 5 5 5 4 4 4 4 3
40 46 54 64 69 71 75 84 91 93 90 91 97 99 97 96 97 99 101 98 95 96 98 100 100 100 101 101 100 101 101 101 100 101 101 100 100 101 98 98 100 90 76 78 86 83 79 84 84 80 78 74 68 63 57 54 54 51 48 44 39 35 32 25 18 13 8 5 4 4 5 6 6 6 6 6 6 6 5 4 4 4 4 4 3
40 46 54 62 66 69 74 80 87 95 96 93 95 99 98 98 98 99 100 100 99 97 97 99 100 100 100 101 100 100 101 101 101 101 101 100 101 100 98 99 97 83 71 77 87 85 83 88 85 76 70 66 61 57 53 51 50 44 35 27 21 18 15 11 8 7 5 5 5 5 6 7 6 6 7 7 6 6 5 4 4 4 3 4 4
38 45 51 58 63 66 71 75 81 90 95 94 94 98 100 100 100 100 100 100 100 100 99 99 100 100 100 100 101 101 102 101 101 101 101 101 100 98 96 94 88 78 74 79 84 84 84 82 75 68 63 58 54 50 46 43 36 26 17 12 10 9 8 7 6 6 5 5 6 6 7 7 7 7 8 7 6 6 5 5 5 5 5 4 4
37 43 48 56 61 63 66 71 75 82 91 93 91 92 96 100 101 100 100 100 100 100 100 99 100 101 100 100 101 101 101 101 100 99 101 102 100 96 93 90 84 81 82 83 83 82 79 72 65 60 53 47 43 39 33 26 18 12 8 8 8 8 8 7 6 6 6 6 7 7 8 8 8 9 8 7 7 7 7 6 6 6 6 5 5
36 42 46 52 59 61 63 68 71 75 84 90 90 87 89 95 100 100 100 100 100 100 100 100 100 100 99 98 98 97 96 96 96 96 97 98 96 94 92 90 87 83 81 80 80 77 69 61 54 47 40 36 32 27 22 16 11 9 8 8 9 8 8 8 7 7 7 7 7 8 9 9 9 9 8 8 8 8 7 7 7 7 6 6 6
37 42 44 50 57 60 62 65 67 69 75 84 89 87 84 87 96 100 100 100 100 100 100 100 100 100 100 99 98 98 97 95 93 93 93 93 93 93 91 89 88 85 81 78 75 67 55 47 41 36 33 31 26 20 16 12 9 9 8 8 10 10 8 8 8 7 7 8 8 9 9 9 9 8 8 8 7 7 7 7 6 6 6 6 6
37 41 43 47 54 60 62 63 65 66 69 76 85 88 85 84 89 96 100 101 99 99 100 100 100 100 101 101 100 99 99 98 95 92 89 85 85 86 84 80 77 76 76 72 64 54 46 42 38 34 32 29 23 18 15 11 9 9 8 8 10 10 9 7 7 7 8 8 9 9 9 8 8 8 7 7 7 7 6 6 6 6 6 6 6
37 40 43 45 49 56 60 62 64 65 65 69 76 83 86 85 83 86 93 97 98 99 100 100 101 100 99 100 100 99 99 99 97 93 88 81 78 76 73 69 66 67 70 68 59 49 45 41 36 32 29 26 22 17 13 10 9 10 11 11 11 9 8 7 7 8 9 8 9 9 8 8 8 7 7 7 6 6 6 6 6 6 5 5 5
39 40 42 43 45 49 54 58 61 64 64 64 68 75 83 84 82 81 84 90 96 100 100 99 100 101 100 100 100 100 100 100 99 99 98 94 90 85 80 79 79 79 79 74 64 56 50 44 39 37 33 26 22 19 16 14 14 13 13 12 10 8 8 8 7 8 8 8 8 8 7 7 7 7 6 6 6 6 6 5 5 5 5 5 5
40 40 42 43 42 44 48 51 54 58 61 61 61 65 74 80 81 80 80 82 86 94 99 100 100 99 99 99 99 99 100 100 99 98 98 98 97 92 88 88 89 88 84 80 75 72 68 63 61 60 52 40 30 25 20 17 16 15 13 11 9 8 8 8 8 8 9 8 8 8 7 7 7 6 6 6 5 5 5 5 5 5 5 5 5
40 41 42 43 43 41 43 45 46 50 55 56 55 57 63 72 77 78 78 78 78 80 88 95 99 98 98 99 98 97 97 96 94 92 90 90 90 87 84 84 84 83 82 82 80 77 73 69 68 67 61 52 42 32 24 19 18 17 14 12 10 9 8 8 8 8 8 8 8 8 7 7 6 6 6 5 5 5 5 5 5 5 5 5 5
39 41 42 43 44 43 41 41 41 43 46 49 51 52 55 62 69 73 76 78 77 74 74 79 85 90 95 97 98 98 98 95 93 92 92 93 91 88 85 83 82 81 82 82 79 75 71 68 66 62 55 47 38 29 24 22 21 19 16 13 11 9 8 8 8 8 8 8 8 7 7 6 6 6 5 5 5 5 5 5 4 5 5 5 4
39 41 42 43 44 45 43 40 39 39 41 43 46 48 51 54 60 66 71 75 77 76 73 70 70 74 80 84 87 89 92 93 95 96 97 97 97 96 94 92 90 90 90 89 87 84 82 79 76 70 62 53 43 33 26 23 22 20 17 14 11 9 7 7 7 7 7 7 7 7 7 6 5 5 5 5 5 4 4 5 5 4 5 5 4
42 43 44 43 43 45 45 44 42 40 39 40 42 45 48 50 52 57 63 68 73 76 75 71 66 64 65 69 71 72 74 77 82 86 88 89 89 89 89 88 87 86 84 81 78 76 73 71 69 66 62 56 48 39 31 25 23 21 18 13 10 8 7 7 7 7 7 7 6 6 6 5 5 5 4 4 4 4 4 4 4 4 4 4 4
44 45 46 44 44 45 45 46 46 43 41 40 40 41 45 47 49 50 53 57 63 67 69 68 66 61 58 57 58 60 60 60 61 64 68 70 71 71 70 70 70 70 68 65 61 56 53 49 46 42 40 38 34 30 26 22 20 18 14 10 9 8 7 7 7 6 6 6 6 6 5 5 4 4 4 4 4 4 4 4 4 4 4 4 4
46 46 47 46 46 46 46 47 47 46 44 43 42 41 42 44 46 48 49 51 54 55 55 55 55 55 54 51 49 49 51 53 54 53 52 53 54 55 56 55 53 50 48 46 42 38 35 31 28 27 25 23 21 19 18 16 15 13 10 9 8 8 8 7 7 6 6 6 5 5 5 5 4 4 4 4 4 4 4 4 4 4 4 4 4
49 47 49 50 49 48 47 47 47 47 47 46 44 43 43 43 43 45 47 49 51 53 52 49 45 43 43 42 42 42 42 44 48 51 51 49 47 49 54 59 57 51 44 40 38 37 36 34 34 34 32 29 26 22 19 16 14 13 11 10 9 8 8 7 7 7 6 5 5 5 4 4 5 4 4 4 4 4 4 4 4 4 4 4 4
58 57 58 59 56 53 51 49 47 47 48 48 47 45 44 44 44 44 44 45 48 51 54 55 52 46 39 33 32 33 33 34 36 39 44 47 48 48 52 59 62 61 56 51 49 49 49 47 47 46 46 45 42 37 31 25 21 18 16 13 11 10 10 9 8 7 6 5 5 5 4 4 5 4 4 4 4 4 4 4 4 4 3 4 4
64 64 63 61 59 57 56 54 51 49 48 48 49 48 46 45 45 44 44 45 45 46 49 53 56 56 51 41 32 27 26 27 29 30 31 34 37 39 42 47 52 57 59 58 56 54 54 52 51 50 50 51 50 45 39 32 25 20 18 16 14 14 14 12 9 7 6 5 4 4 5 5 4 4 4 4 4 4 4 4 3 4 3 3 4
62 61 60 60 59 58 59 58 57 55 52 51 50 50 49 48 47 46 46 45 44 45 46 47 49 53 56 54 48 40 32 26 24 24 24 24 24 26 28 30 34 39 45 49 52 53 54 54 53 52 52 51 49 47 44 38 29 22 17 15 14 14 13 12 9 6 5 5 5 5 5 5 4 4 4 4 4 4 4 3 3 3 3 3 3
62 61 59 59 59 60 60 59 59 59 58 56 53 51 50 50 48 47 47 47 46 45 45 45 44 45 47 50 54 54 50 41 32 24 21 19 18 19 20 21 22 25 29 34 39 44 48 51 53 54 54 52 49 47 48 47 41 34 26 21 17 14 11 9 9 7 6 6 5 5 5 5 4 4 4 4 4 4 3 3 4 3 3 3 3
64 62 60 57 55 55 54 53 54 56 57 57 56 54 52 51 50 49 48 48 48 47 46 45 44 44 43 43 44 47 50 52 49 43 36 29 22 19 17 17 18 19 21 24 28 32 37 43 47 50 53 53 49 47 49 52 51 47 42 36 29 22 16 12 11 10 9 7 6 6 6 5 5 5 5 5 5 5 4 4 4 3 3 3 3
68 65 63 60 56 52 49 48 49 51 52 53 55 55 53 51 51 50 49 48 48 48 47 45 45 45 44 43 42 41 42 45 50 53 54 50 42 33 26 21 18 18 18 19 22 25 29 34 38 41 45 46 45 43 45 49 50 49 47 45 41 35 29 23 18 14 11 9 7 7 7 7 6 6 6 6 6 6 5 4 5 4 3 3 3
73 68 64 61 59 57 53 49 47 48 49 49 51 52 52 51 49 49 49 48 47 46 46 46 45 44 44 44 44 44 43 43 44 47 50 53 52 48 40 33 28 25 22 20 20 21 22 26 29 32 34 36 37 37 39 42 45 46 45 44 43 39 34 28 22 16 12 10 8 9 10 9 9 8 9 10 10 9 7 6 5 5 4 4 3
74 74 69 64 61 60 57 53 49 48 48 48 49 49 49 48 46 45 47 47 46 45 45 44 43 43 43 43 44 44 44 43 43 42 43 45 48 48 46 43 40 36 32 28 25 23 21 20 22 24 27 32 36 41 43 44 45 45 45 44 41 38 32 26 20 15 12 12 12 12 12 12 12 12 13 14 14 12 9 8 6 6 6 5 3
Wind_Speed
23 26 27 28 30 30 29 29 30 31 31 31 31 30 30 30 30 30 30 30 31 33 36 37 38 38 36 33 30 28 28 30 34 38 41 42 43 43 42 43 45 45 48 52 54 53 54 52 47 46 46 46 46 45 42 40 41 41 41 40 39 37 37 39 39 36 34 33 32 30 28 29 31 32 31 31 30 29 28 26 24 22 22 21 20
26 28 29 30 31 31 31 31 31 32 33 33 32 31 31 31 31 31 31 31 32 33 35 37 37 37 38 36 32 28 28 30 32 36 40 42 43 45 45 44 45 47 48 51 54 56 57 55 49 46 47 47 48 46 43 42 43 44 43 43 41 40 39 40 41 40 37 34 32 32 30 30 31 32 33 32 31 31 29 27 25 23 22 21 20
27 29 30 31 32 32 32 32 32 33 33 34 34 32 32 32 32 32 32 32 33 34 36 36 36 37 38 37 34 31 29 31 32 34 39 42 43 45 47 45 44 47 50 52 55 57 57 56 51 47 48 49 49 47 44 44 45 45 46 45 43 43 42 42 44 44 41 37 33 33 33 32 32 33 34 32 31 31 29 27 25 23 22 20 19
28 30 31 32 32 32 33 33 33 33 33 34 34 34 34 34 34 34 34 34 35 36 37 38 37 38 38 39 38 36 33 33 34 35 36 40 43 44 46 48 46 47 50 53 55 56 57 56 53 49 50 51 50 48 46 46 47 47 46 46 45 45 44 44 47 49 46 39 33 34 35 35 34 35 35 34 32 30 28 26 25 23 20 19 19
28 30 31 32 32 32 32 32 32 33 34 34 35 35 35 35 36 36 37 37 37 38 39 40 40 40 41 41 41 41 38 35 36 37 36 37 41 43 44 48 48 47 49 52 54 55 55 54 53 52 52 52 51 49 47 48 49 48 47 47 47 46 44 45 48 50 48 42 35 34 36 35 35 36 36 36 34 31 28 26 25 23 21 20 19
28 30 31 31 31 31 31 31 33 34 35 35 36 36 37 37 38 38 39 39 40 40 41 42 43 44 44 43 43 44 42 39 37 38 37 37 39 42 43 46 49 48 49 51 53 55 55 55 55 54 53 53 52 50 49 50 50 49 47 46 46 46 44 45 49 50 48 44 38 35 36 37 37 37 37 36 35 33 30 28 25 23 22 21 19
28 29 30 30 30 31 31 32 33 35 36 36 38 39 39 40 40 40 40 40 41 41 41 42 44 46 46 46 46 45 44 42 39 39 39 38 39 42 43 45 49 49 49 51 53 55 57 57 57 56 54 53 52 50 51 51 50 49 48 45 44 45 44 45 49 50 48 46 41 36 36 38 38 39 38 35 33 31 30 29 27 25 24 21 20
27 28 30 31 31 31 31 33 34 36 37 38 40 41 41 41 42 41 39 39 39 40 40 41 43 45 47 48 47 45 44 43 41 41 41 39 39 42 43 45 48 48 48 51 54 56 58 59 59 57 54 52 51 51 51 52 50 49 48 45 44 45 46 47 50 51 48 46 43 37 36 38 38 39 38 37 35 33 32 30 27 25 23 21 20
27 29 30 31 31 31 32 34 36 38 39 40 42 42 42 42 42 41 40 38 38 38 38 38 40 43 45 46 46 44 43 42 41 42 43 41 40 42 43 44 48 49 48 50 54 56 58 60 60 58 54 52 51 51 50 50 50 49 48 46 44 45 47 49 53 54 49 44 41 38 37 38 40 41 40 40 39 37 35 32 28 24 22 20 19
27 29 31 31 31 31 33 35 37 39 41 42 42 42 42 41 41 41 39 38 38 37 36 36 38 40 40 41 41 41 42 43 42 42 44 43 41 42 43 43 46 49 49 50 53 56 58 59 59 57 54 52 51 51 49 49 49 49 48 47 46 46 48 50 54 54 48 43 42 40 40 40 41 42 40 39 39 38 36 33 30 26 23 21 20
28 30 30 30 30 32 34 35 37 41 42 42 41 41 41 41 41 41 39 38 38 37 36 35 35 37 37 37 37 38 40 41 42 43 44 44 42 41 43 43 45 48 50 51 54 56 57 59 59 56 53 52 52 50 49 48 49 49 49 47 46 46 47 49 50 50 47 45 45 44 42 41 40 40 38 38 38 37 35 32 29 26 24 22 21
28 29 29 29 30 32 34 36 38 41 41 40 39 40 41 42 42 42 40 38 38 37 36 34 33 34 36 35 36 37 38 39 41 43 44 44 42 41 42 43 44 47 50 52 55 56 56 58 59 58 54 52 51 50 48 47 49 49 47 45 45 46 46 46 46 46 47 47 47 44 41 38 37 37 35 35 36 35 34 31 27 25 23 22 20
27 27 27 28 30 32 34 36 38 39 38 37 38 40 42 43 43 43 41 39 37 35 34 33 32 33 35 35 35 36 36 37 40 43 43 43 42 41 42 43 44 48 51 53 54 55 55 57 60 60 56 52 50 49 47 47 48 48 45 43 43 44 43 44 45 44 44 44 43 40 38 37 35 33 32 33 34 34 32 28 26 24 23 20 18
25 24 25 27 29 31 33 35 37 37 37 38 39 40 42 44 44 44 42 39 37 34 32 30 29 32 34 33 32 33 34 36 40 42 42 42 42 42 42 43 45 47 50 52 53 53 54 55 57 57 54 52 51 48 48 50 50 47 45 43 43 43 42 43 43 40 38 36 36 36 36 34 32 28 29 31 31 29 26 24 23 22 20 18 18
22 22 23 25 28 31 34 36 37 39 38 38 39 41 43 45 45 44 42 39 36 33 31 29 27 29 32 32 32 33 34 36 40 41 39 40 42 42 42 43 44 46 49 52 52 52 52 52 52 53 51 50 50 49 50 52 50 47 46 45 45 43 41 41 40 38 35 33 32 31 29 28 27 26 26 27 26 24 22 20 20 19 18 17 16
20 20 22 24 29 33 36 37 39 39 38 37 39 41 43 44 44 43 41 38 35 32 29 27 26 26 30 31 32 34 35 37 38 37 36 39 41 41 42 43 44 45 48 51 53 52 50 49 49 49 49 50 50 50 52 52 49 47 48 47 45 43 41 41 39 35 31 28 25 23 22 23 25 24 23 23 23 23 22 21 19 18 17 16 16
19 19 21 24 30 34 36 38 40 39 35 36 39 41 42 43 42 41 39 37 33 29 26 25 24 25 28 29 31 35 36 36 36 34 33 36 40 40 41 43 44 45 48 52 56 54 50 49 50 50 49 50 50 50 51 49 45 45 46 46 45 43 42 40 36 30 26 22 21 20 20 21 23 23 22 22 21 21 21 20 18 16 15 15 15
19 20 21 25 30 33 35 39 41 36 34 36 37 38 37 38 38 38 37 35 33 27 24 24 24 25 29 30 31 35 37 36 37 34 31 34 39 39 40 44 45 46 48 53 57 55 52 52 53 53 52 51 51 50 48 46 44 44 45 45 45 43 40 37 34 31 27 25 24 23 22 22 23 23 23 22 21 20 19 17 15 14 13 13 14
19 20 21 25 29 32 35 40 39 34 33 35 34 32 32 32 33 34 33 34 33 26 22 24 24 24 27 28 28 32 34 36 39 36 31 33 39 39 40 44 47 48 50 51 52 55 56 56 55 56 56 55 54 52 48 47 46 45 44 44 43 40 38 37 36 35 32 29 28 27 25 23 23 23 22 21 19 18 16 14 13 12 12 12 13
18 19 20 24 28 31 35 39 37 33 33 34 30 27 28 28 28 27 27 31 30 22 17 19 22 23 25 26 27 30 32 35 39 38 33 35 40 40 40 44 48 51 52 50 51 55 57 57 56 54 52 53 55 54 51 50 48 46 45 43 41 40 40 38 36 35 33 31 30 28 25 24 23 21 20 18 16 14 13 12 11 11 12 12 12
16 16 17 22 28 30 33 39 39 33 32 32 28 26 25 23 22 21 20 20 18 13 14 17 21 23 24 25 27 30 31 34 37 36 33 35 40 41 41 43 47 52 54 53 54 55 55 55 54 50 47 51 57 57 54 52 49 47 45 40 37 37 39 38 37 35 32 30 28 27 25 24 22 19 17 15 13 12 11 11 11 11 11 11 11
14 15 15 19 26 29 32 38 41 36 33 32 30 27 24 21 20 17 11 5 2 8 15 19 20 21 21 23 25 27 29 32 34 33 32 35 39 41 42 42 45 51 55 56 55 54 54 55 54 51 50 53 55 53 50 47 44 41 39 35 33 33 35 36 36 33 30 28 27 26 25 22 19 18 16 14 13 12 11 11 10 10 9 9 9
13 14 14 16 24 28 29 35 41 40 36 33 31 28 24 19 18 16 9 7 9 10 12 15 16 16 18 20 22 23 25 29 31 30 31 36 40 41 41 41 44 50 56 58 58 56 56 55 54 53 52 51 49 46 45 43 38 34 33 32 31 32 33 34 33 31 29 28 26 24 22 19 18 17 16 15 14 12 11 10 9 9 9 9 9
13 14 14 16 22 26 27 31 38 42 39 34 32 30 26 21 18 16 11 7 9 10 9 9 11 14 16 18 20 21 23 24 26 27 31 38 42 41 41 42 45 50 54 57 58 57 56 54 51 50 49 46 44 44 43 41 35 31 31 32 31 31 31 31 31 30 29 27 25 22 20 19 17 17 16 15 13 11 10 9 9 9 8 8 7
13 14 14 15 20 24 25 27 34 40 41 36 33 33 31 27 22 18 13 8 9 12 11 9 10 13 16 18 19 21 22 23 25 28 33 39 41 42 43 44 47 50 51 51 49 48 48 48 47 48 48 47 45 44 42 38 33 31 32 32 30 29 29 29 30 29 27 25 24 22 21 20 18 16 15 14 12 11 10 9 9 8 7 7 6
13 14 15 15 18 22 23 24 28 36 40 38 34 33 34 32 26 21 16 11 9 11 14 13 12 14 17 18 20 21 22 24 27 31 36 39 40 42 43 44 47 48 45 41 40 41 43 45 46 47 47 45 43 41 37 34 32 32 32 29 27 27 27 27 27 26 25 25 24 23 22 21 19 17 16 14 12 11 10 9 8 7 7 6 5
14 15 16 16 17 19 21 22 24 30 37 40 36 32 34 34 31 26 23 17 10 10 14 17 17 17 19 20 21 22 23 24 28 32 36 39 40 42 43 45 48 46 41 38 40 41 42 43 44 43 41 40 38 36 35 34 34 33 31 28 26 26 25 24 23 23 24 25 25 23 23 21 19 18 16 14 13 12 10 9 8 7 6 5 3
14 15 16 16 17 18 20 21 22 25 31 37 39 35 33 35 34 30 27 22 16 12 12 17 21 21 22 22 23 23 23 24 27 30 34 38 41 42 44 47 47 44 41 41 44 44 44 44 41 39 38 37 37 37 37 37 35 33 31 28 27 26 25 23 23 23 24 24 25 24 23 21 19 18 16 14 13 12 11 9 8 7 6 4 3
14 15 15 16 17 18 18 19 21 22 25 31 37 36 32 33 34 32 29 26 22 17 13 16 20 22 23 23 23 25 25 25 26 28 31 36 40 43 45 47 45 42 41 42 44 45 45 44 42 41 40 39 39 40 39 37 35 33 31 29 28 27 26 25 25 25 25 25 25 24 23 22 20 18 16 15 14 13 11 9 8 7 6 4 3
14 14 15 16 17 17 18 18 19 21 22 26 32 35 33 31 32 33 32 30 27 24 19 18 18 20 23 23 22 24 26 25 24 24 27 33 39 43 45 44 42 40 40 41 43 45 45 44 43 43 43 42 42 41 40 38 36 34 31 29 28 28 27 26 26 26 26 25 24 23 23 21 20 19 17 15 14 13 11 9 8 7 6 4 3
13 14 14 16 17 18 18 18 19 20 21 23 27 32 34 32 30 32 34 34 32 29 26 24 22 23 25 27 27 26 25 25 24 23 26 32 38 41 40 38 38 39 39 39 42 46 47 46 45 43 42 41 41 40 39 38 36 35 34 31 29 28 28 28 28 27 27 26 25 23 22 20 19 18 17 15 13 12 11 9 8 6 5 3 2
12 13 14 15 16 18 18 19 19 20 20 21 23 27 32 34 31 29 32 35 36 34 30 28 27 27 27 28 28 28 26 25 26 26 28 32 35 37 38 38 39 40 39 38 42 45 46 45 44 41 40 39 38 38 38 37 36 36 35 34 32 30 29 29 28 27 27 26 25 24 22 20 18 17 16 14 12 11 10 8 7 5 4 2 1
12 13 14 15 16 17 18 19 20 21 21 21 21 23 28 32 32 29 27 31 35 36 33 30 29 29 30 29 29 29 29 28 29 31 32 34 35 37 39 40 40 40 38 39 42 44 42 41 41 39 37 37 37 36 36 35 35 36 35 35 34 32 30 29 28 27 26 25 24 23 21 19 17 16 14 13 11 9 8 7 5 4 3 1 1
12 13 14 15 17 17 18 19 21 21 23 22 21 21 23 27 30 30 27 26 30 33 34 32 29 29 31 32 32 32 32 33 33 35 37 37 37 36 37 38 36 33 32 35 38 39 38 37 37 36 34 34 35 35 34 34 35 35 35 34 34 33 31 29 28 27 26 24 22 21 20 18 16 14 13 11 10 9 7 6 4 3 2 1 2
11 12 14 15 17 18 18 19 21 22 23 23 22 21 21 22 26 29 29 27 27 29 31 31 29 28 28 29 31 32 33 33 34 34 35 36 35 34 33 33 30 26 25 28 31 33 33 33 33 32 31 32 32 32 32 33 33 33 33 34 34 33 31 30 28 26 24 23 21 20 18 17 15 13 11 10 8 7 6 5 4 3 2 2 3
10 12 14 16 18 19 20 20 21 22 23 24 23 22 20 20 22 25 28 28 27 26 27 27 28 28 27 27 27 29 30 30 31 32 32 31 31 31 31 30 28 27 27 28 29 29 29 30 30 29 28 29 29 29 29 29 30 30 31 32 32 31 30 29 28 26 23 22 20 18 17 15 14 12 10 9 8 7 6 5 4 3 2 3 4
9 11 14 16 18 20 21 21 22 23 23 24 23 22 20 19 19 21 24 26 27 27 26 26 26 27 28 28 27 26 27 28 29 30 30 28 28 29 31 31 30 29 29 28 27 27 27 27 26 25 25 26 26 26 26 27 27 28 29 29 29 29 28 28 26 24 22 21 19 17 15 13 12 10 9 9 8 7 7 5 4 3 3 4 4
7 10 12 15 17 19 20 21 22 22 23 23 22 22 21 19 18 19 20 22 24 25 25 25 26 27 28 28 27 27 27 28 29 29 28 27 27 29 31 32 31 31 29 28 28 29 29 28 26 25 24 23 23 23 24 23 24 25 26 27 27 27 26 26 25 23 21 19 18 16 14 12 11 10 9 9 8 8 7 5 4 3 3 4 5
6 9 10 12 15 17 18 20 21 21 22 22 21 21 21 20 18 18 18 19 20 21 22 23 24 25 26 26 26 26 27 28 29 29 28 27 27 27 28 29 29 29 29 28 28 28 28 28 27 26 25 24 23 22 22 21 21 22 23 25 26 26 25 25 24 22 20 18 17 16 14 13 12 11 10 9 9 8 6 5 4 4 4 5 5
4 7 9 10 12 14 16 17 19 19 20 21 21 20 20 20 19 18 17 17 17 18 19 20 21 22 22 23 23 24 24 25 26 26 26 27 27 26 26 25 25 25 26 26 26 25 25 25 25 24 24 23 23 22 21 20 20 22 23 24 25 24 24 23 22 21 20 18 17 15 14 13 12 11 10 10 9 7 6 5 4 5 5 5 5
3 5 8 10 11 12 13 14 16 17 18 19 20 20 19 19 19 18 17 17 17 16 16 17 18 19 19 20 21 21 21 21 22 22 23 24 25 25 25 24 22 21 21 22 22 22 21 21 21 19 19 19 19 19 19 19 20 21 22 23 23 23 22 22 20 19 18 17 16 15 13 13 12 11 10 10 8 7 6 5 5 5 5 5 5
6 5 7 9 11 11 12 12 13 14 16 16 18 19 19 18 18 18 17 17 17 16 16 15 16 16 16 16 17 18 18 18 18 18 19 20 21 21 21 20 19 18 18 18 19 19 18 17 17 15 15 15 15 16 16 18 19 20 21 22 22 21 21 20 19 18 17 16 15 14 13 13 12 11 10 9 8 7 7 6 6 6 5 5 5
7 6 7 9 11 12 13 12 12 12 13 14 15 16 17 17 17 17 16 16 16 16 16 16 15 15 14 14 14 15 15 15 15 15 15 15 16 16 15 15 15 15 15 15 16 16 16 15 15 14 13 13 13 13 14 15 17 18 19 20 20 20 19 19 18 17 17 16 15 15 14 13 12 11 10 9 8 7 7 7 6 5 5 5 5
5 6 6 8 10 13 14 15 14 12 12 13 13 13 14 15 15 15 15 14 14 14 15 16 16 15 14 13 12 13 13 13 13 13 12 12 12 12 12 12 12 12 13 13 13 14 14 14 14 14 14 13 13 12 13 14 15 17 18 19 19 19 19 18 17 16 16 15 15 15 14 13 12 11 10 9 8 7 7 7 6 5 5 5 5
4 6 7 8 10 13 15 16 16 15 14 13 12 12 12 12 13 13 13 13 13 12 13 14 15 16 15 14 12 11 11 11 11 11 11 11 11 10 10 11 11 11 11 12 12 13 13 13 13 14 14 14 13 13 13 13 14 15 16 17 18 18 18 17 15 15 14 14 14 13 13 13 12 10 10 9 8 7 7 7 6 5 5 5 6
6 7 7 8 10 11 13 14 15 16 15 14 13 12 11 11 11 11 11 12 12 12 12 12 14 14 15 15 14 12 11 10 10 9 9 10 10 9 9 10 10 10 11 11 11 11 12 12 12 12 11 11 12 13 13 13 13 14 15 15 15 15 16 15 15 15 14 14 13 13 13 12 11 10 10 9 8 8 8 7 6 6 6 6 6
11 9 7 6 6 7 9 10 12 13 14 14 13 11 10 10 10 10 10 10 10 11 11 11 13 13 14 14 14 13 13 12 10 9 8 8 7 7 8 8 8 9 10 10 10 10 10 10 10 10 9 9 10 11 12 13 13 14 14 14 14 15 15 15 15 15 14 14 14 13 13 12 11 10 10 9 8 8 8 7 7 7 6 6 6
10 11 11 9 6 5 6 7 9 10 10 10 10 9 8 8 8 9 9 8 8 9 10 11 11 12 13 13 12 12 12 12 11 10 9 8 6 5 5 5 6 7 8 9 10 10 9 9 9 9 8 8 8 9 11 12 13 14 15 15 15 15 15 16 16 15 14 14 14 13 13 12 11 10 10 9 9 9 8 7 7 7 6 6 6
9 10 11 12 11 10 8 7 7 7 7 7 6 6 5 5 6 7 7 7 7 8 8 9 10 10 11 11 12 11 11 10 10 10 9 8 8 6 5 4 3 4 5 6 8 9 10 10 10 10 9 9 8 9 10 11 11 12 14 15 15 15 15 15 16 15 15 14 14 13 12 12 11 11 10 10 9 9 8 7 7 7 6 6 6
11 10 9 10 11 11 11 10 8 7 5 4 4 5 4 4 4 5 5 6 7 7 8 8 9 9 10 10 10 10 10 10 9 8 7 7 7 7 6 6 4 3 3 4 5 7 9 10 11 12 12 12 11 11 12 12 12 12 13 15 15 15 16 16 16 15 15 14 13 13 12 12 11 11 11 11 10 9 8 7 7 6 6 6 6
15 12 10 8 7 7 8 9 8 7 3 2 4 5 5 5 5 5 5 5 5 6 7 7 8 8 9 9 10 10 10 9 8 7 6 6 5 5 5 6 5 5 4 3 4 5 7 8 10 11 13 13 13 13 13 13 13 14 14 15 16 16 16 16 16 15 15 14 14 13 13 12 12 12 12 11 10 9 7 7 7 6 6 6 6
Wind_Direction
310 313 316 317 316 315 315 312 308 306 305 304 302 301 300 298 296 294 291 286 283 279 274 268 262 262 265 270 273 269 260 248 238 233 233 234 233 230 227 227 229 229 225 224 225 224 223 223 222 225 228 230 232 233 231 229 228 229 229 230 231 230 228 224 222 221 218 215 214 214 216 216 211 208 210 213 214 217 222 226 230 236 244 251 256
311 313 316 317 316 314 314 312 308 306 305 304 303 301 299 297 295 291 289 286 283 279 277 273 267 262 261 264 267 268 265 258 247 238 234 234 233 231 227 225 228 228 224 222 222 222 223 224 224 226 228 229 231 233 230 226 226 228 229 230 229 229 228 225 223 223 222 216 210 208 212 217 215 210 211 215 218 220 223 225 229 236 242 249 256
312 315 317 317 315 315 314 311 308 306 305 305 304 302 300 297 295 291 287 285 283 280 278 275 271 266 262 261 260 261 263 262 257 246 237 234 233 231 228 225 225 226 226 224 221 220 222 223 223 226 227 227 230 233 230 225 225 228 229 230 230 229 227 226 226 226 224 219 211 206 207 212 214 212 212 215 219 221 223 226 231 236 241 247 255
313 316 316 316 315 315 314 311 309 308 307 307 305 304 302 299 296 292 288 284 283 282 281 278 274 269 264 261 259 256 255 257 258 253 242 235 233 232 228 225 224 224 226 226 223 220 220 221 223 226 224 224 228 231 229 225 226 228 230 232 232 231 228 227 228 229 226 220 212 206 207 210 210 211 212 213 215 220 223 227 232 236 239 245 253
314 315 316 316 316 315 313 311 311 310 310 309 308 307 305 301 297 293 290 286 283 282 280 279 276 272 267 263 260 257 254 253 255 253 247 237 232 231 228 224 223 224 225 226 225 222 219 219 222 224 222 222 227 228 227 225 226 228 231 232 233 233 230 227 227 228 226 223 216 206 206 209 209 210 213 215 215 217 221 226 231 234 237 242 249
314 315 316 316 316 314 313 313 314 314 312 311 310 309 308 305 301 297 293 289 286 282 279 276 274 272 269 265 261 258 256 254 253 251 247 239 231 229 227 224 222 223 225 226 224 222 219 219 222 224 222 222 225 227 226 225 226 229 232 233 234 235 231 227 226 225 223 223 222 213 208 209 209 209 212 216 220 222 223 223 226 231 236 241 246
313 314 316 317 316 315 316 316 315 314 312 311 311 311 310 307 304 301 296 291 287 282 278 274 271 270 268 265 262 259 255 253 252 249 245 240 231 226 224 222 220 221 224 225 223 220 219 219 221 224 224 224 226 226 226 225 226 229 232 234 236 237 234 229 226 223 218 218 220 218 213 211 211 212 212 214 218 224 228 229 229 231 235 240 247
313 317 319 318 318 317 317 316 314 313 311 311 311 311 310 308 305 302 297 291 286 281 277 273 269 266 265 263 261 258 254 250 247 245 242 238 231 224 222 221 220 220 223 224 222 220 219 220 222 223 223 224 226 226 226 225 225 228 233 236 238 237 234 229 224 221 217 215 216 217 215 211 211 212 214 214 215 220 226 230 233 235 237 242 247
317 320 321 320 319 318 317 314 313 312 310 310 311 311 309 307 305 302 297 292 285 279 275 271 265 262 261 260 258 255 251 246 242 240 239 235 229 222 220 221 221 220 222 224 223 220 219 220 222 223 223 223 224 226 226 226 226 228 232 235 237 235 230 225 221 218 215 212 213 215 214 212 212 212 214 218 220 223 224 225 228 232 235 240 246
320 322 321 321 320 318 316 314 313 311 310 311 311 310 308 306 304 302 298 294 287 281 276 270 263 257 255 254 253 250 247 243 238 236 236 233 227 220 218 220 223 222 222 223 223 220 219 220 221 223 224 225 225 225 227 228 228 230 233 235 236 233 227 221 218 217 216 214 217 219 217 215 215 215 217 220 222 224 225 226 226 228 233 237 242
323 323 322 321 319 317 315 314 312 310 311 312 311 310 309 308 306 304 301 296 291 285 280 272 262 254 249 247 248 248 246 242 236 233 234 231 225 219 216 219 222 223 222 223 223 221 218 219 221 221 223 227 227 225 226 228 231 232 234 237 239 236 231 225 218 215 218 220 221 222 221 219 217 217 219 221 222 223 225 226 227 230 236 240 243
323 323 323 321 317 315 315 314 312 312 312 313 312 313 312 310 309 307 303 298 294 289 282 273 263 252 245 243 245 247 247 242 234 231 231 228 223 218 216 217 221 224 223 223 223 222 220 220 221 220 223 226 223 221 224 228 231 233 234 238 240 238 236 234 226 219 220 223 222 222 223 223 221 219 221 224 224 224 223 224 227 233 238 241 245
324 324 324 320 317 318 320 319 317 317 317 316 316 315 313 312 311 309 305 301 297 290 283 275 263 249 242 241 244 248 248 241 231 228 227 225 221 217 216 218 222 225 224 222 222 221 220 220 219 218 220 220 217 218 224 227 228 229 231 233 233 231 231 232 230 228 228 227 225 226 228 228 226 224 226 227 225 224 222 223 228 232 235 239 246
324 325 324 321 323 328 330 328 327 325 322 320 317 315 314 313 312 311 308 304 299 291 285 278 264 246 238 239 246 250 247 236 227 223 223 221 219 217 217 220 223 225 224 221 220 220 219 217 215 214 213 213 214 217 222 225 225 225 227 227 223 222 223 224 225 228 229 228 229 231 232 231 229 229 229 226 225 225 226 228 230 231 234 240 246
324 325 324 327 335 339 336 334 333 329 324 320 317 316 315 314 313 312 309 306 300 292 285 281 270 248 234 236 244 247 242 230 222 220 219 218 218 216 217 220 223 225 224 220 220 220 215 209 208 207 206 207 213 218 221 222 221 219 218 217 215 215 216 216 218 221 223 226 231 234 234 232 230 228 227 223 220 221 224 226 228 231 234 239 244
323 323 325 334 343 343 339 336 335 330 325 320 318 318 317 315 313 312 309 306 302 293 282 278 271 249 232 232 239 240 236 225 218 219 221 218 217 216 218 220 221 222 222 219 218 215 206 200 200 202 203 206 211 218 223 224 221 214 210 209 209 209 210 210 212 215 218 222 224 225 228 228 223 218 218 219 217 217 218 219 222 226 231 235 240
321 321 325 335 342 343 341 340 338 332 327 325 323 322 319 315 313 312 309 305 303 293 277 270 265 247 233 234 237 235 231 221 216 222 224 217 214 216 217 219 220 220 219 215 213 209 201 199 200 200 202 207 211 217 223 223 217 209 204 202 203 204 205 204 204 204 205 205 204 205 211 214 210 206 208 213 216 220 222 224 225 226 228 232 235
321 320 325 335 342 344 345 343 340 337 333 332 330 325 320 316 313 311 306 302 302 294 276 266 259 243 237 241 237 230 227 219 215 223 226 215 211 214 216 217 218 217 215 210 205 201 200 200 201 201 202 205 210 215 216 211 203 197 197 198 199 199 198 196 194 192 189 189 193 196 199 202 203 204 207 210 213 217 219 222 224 223 223 228 232
325 325 330 342 349 349 347 346 345 344 343 340 334 326 321 316 312 309 303 298 298 290 269 258 255 244 239 239 231 223 222 218 217 224 227 214 210 214 216 215 214 213 213 207 197 196 201 204 206 210 211 209 209 211 208 201 196 193 193 194 192 189 189 190 190 190 188 189 192 194 194 197 201 204 207 208 210 212 212 213 218 219 222 227 229
332 332 340 353 357 353 350 351 353 353 351 347 339 332 328 321 315 312 303 295 294 285 259 247 248 244 236 230 226 223 221 218 217 222 224 215 211 213 215 215 213 211 211 207 199 198 203 208 211 214 213 210 208 206 201 199 198 194 191 191 189 186 186 188 191 194 194 193 193 193 193 195 197 200 203 202 202 203 203 205 213 216 219 223 225
339 342 353 2 1 356 354 357 0 359 357 354 348 344 341 332 328 327 315 299 289 266 239 230 230 230 226 225 227 224 219 215 215 218 220 214 210 211 213 215 215 212 208 207 204 202 204 207 208 206 202 201 201 199 197 197 198 194 190 191 192 191 189 189 191 195 196 194 192 191 192 193 192 192 193 191 191 194 198 204 210 212 214 219 222
345 351 0 2 0 358 357 0 4 3 1 1 359 356 352 346 343 346 345 349 113 174 199 210 215 218 221 224 226 222 216 214 213 214 215 212 209 210 212 214 216 213 208 205 204 203 202 203 201 198 195 195 195 192 191 193 194 192 188 188 191 193 192 192 192 192 192 192 191 190 189 188 186 183 181 182 185 190 197 202 204 206 210 216 221
347 353 359 357 358 359 357 1 6 6 4 7 8 6 5 2 356 357 15 66 90 123 167 194 209 214 213 214 218 218 215 212 210 211 212 210 207 208 210 211 214 215 211 206 202 201 200 199 196 193 190 190 189 187 186 188 189 189 186 187 190 191 191 191 189 188 188 189 189 186 182 181 180 177 176 180 183 186 190 192 194 199 204 209 214
350 352 355 353 356 358 357 360 7 9 8 11 16 17 17 18 12 3 9 51 76 88 121 166 191 198 199 202 204 207 208 206 205 208 209 206 205 206 206 205 209 212 209 204 201 199 196 194 190 186 183 183 184 184 184 184 183 184 185 188 189 189 188 187 186 186 186 184 182 180 175 173 175 174 174 178 178 177 178 180 185 192 195 201 206
355 357 357 353 354 359 359 359 5 10 11 13 21 25 25 28 30 20 8 17 57 74 92 125 157 173 181 186 187 189 195 197 198 201 202 201 201 204 203 202 204 204 200 195 194 193 191 186 183 180 180 181 183 182 182 181 179 180 184 185 184 184 185 186 185 184 182 178 176 175 170 167 170 171 170 169 167 166 169 171 176 180 182 188 194
358 0 360 355 352 357 360 359 3 10 13 14 21 29 30 30 35 39 34 26 42 71 90 108 127 146 157 164 169 174 180 187 191 192 193 193 195 198 199 197 196 193 189 186 185 183 181 180 180 179 178 178 179 177 175 174 173 174 177 179 180 181 183 183 182 180 177 174 172 171 168 166 167 165 161 160 160 159 158 159 163 166 169 173 176
353 357 360 358 353 353 357 360 2 8 12 15 20 28 34 34 33 39 46 45 48 73 91 102 114 128 138 146 157 164 169 178 185 186 187 188 189 191 191 190 188 185 183 184 183 180 178 179 179 178 174 172 172 169 166 167 170 171 172 173 175 176 176 178 178 176 174 172 169 168 167 164 162 158 155 155 155 151 147 149 154 156 154 151 144
350 354 358 1 359 357 357 0 4 7 11 16 20 26 36 40 37 38 44 50 56 71 91 102 109 118 128 137 150 160 164 169 176 180 184 186 186 185 185 185 184 182 183 184 183 180 180 178 175 171 168 167 168 166 165 167 168 168 168 168 168 168 168 170 171 171 171 170 168 166 163 159 156 154 153 152 148 144 143 145 145 142 133 118 97
353 355 359 5 7 7 4 3 6 10 12 16 21 26 35 44 44 42 45 52 59 67 80 95 105 116 126 133 147 158 161 162 168 174 180 184 185 185 184 182 180 179 182 186 185 181 176 171 167 165 167 168 169 167 165 164 164 163 163 162 162 163 165 167 168 168 168 168 166 163 159 156 153 151 150 148 144 141 141 140 133 127 118 104 79
3 3 4 10 14 16 16 11 9 12 15 17 22 25 32 43 51 51 50 54 62 69 75 84 98 113 121 124 134 146 151 153 159 167 172 176 180 181 179 178 178 178 179 183 183 177 170 165 164 166 168 169 167 165 163 162 160 158 157 158 160 162 163 165 167 166 165 165 163 160 157 155 152 149 146 144 141 140 140 137 130 121 116 112 100
12 11 9 13 18 21 24 20 14 15 18 19 22 24 28 37 51 59 57 55 59 68 78 86 94 103 109 112 117 124 130 137 144 153 162 167 169 169 168 170 174 175 176 180 177 169 164 163 164 165 167 167 164 162 160 159 157 155 155 157 160 161 162 164 165 163 162 160 158 155 152 151 149 147 144 142 141 140 139 138 133 128 127 130 128
18 17 14 16 21 24 29 28 23 21 21 22 24 26 27 32 42 56 61 58 56 60 71 83 89 92 95 102 108 113 118 127 135 143 153 158 158 157 158 162 166 167 174 181 176 166 162 163 163 162 163 163 160 159 157 156 156 155 155 157 158 160 161 162 161 161 159 157 153 151 149 148 147 145 144 144 145 145 144 143 142 142 143 151 176
26 25 22 21 22 25 30 33 31 28 26 26 27 28 29 31 35 43 56 62 61 59 63 73 84 90 91 94 101 109 116 124 131 137 142 146 147 149 151 155 157 160 167 172 169 164 163 162 159 158 159 158 158 158 156 155 155 156 157 157 157 158 159 159 158 157 156 154 152 150 148 148 148 146 147 149 151 153 154 155 156 160 168 193 271
33 29 29 28 26 26 28 32 34 33 32 32 31 31 33 34 34 36 44 57 64 62 61 67 79 89 93 94 98 105 112 120 127 133 136 136 137 141 144 144 144 149 159 164 162 159 158 155 152 151 154 156 158 157 156 156 157 157 157 157 155 155 156 156 155 155 154 153 152 150 149 150 150 150 153 157 160 162 166 169 174 185 204 247 287
36 34 35 33 31 30 28 29 34 35 35 36 37 35 36 36 36 37 40 47 57 62 62 65 73 83 91 96 99 103 107 112 118 123 125 126 127 131 133 132 131 135 146 154 154 150 147 144 143 146 151 156 158 157 156 157 158 158 158 156 155 155 156 156 156 157 156 155 154 153 153 154 154 156 161 165 166 171 176 182 191 207 241 280 294
40 39 41 38 36 34 30 28 31 34 36 39 40 40 40 39 39 41 43 44 50 58 62 65 72 80 88 93 98 103 107 109 111 112 112 114 119 123 124 123 127 133 140 145 146 144 142 141 143 147 152 155 155 155 156 157 157 158 159 158 157 157 158 158 158 159 159 158 158 158 160 160 159 161 167 171 174 180 187 195 206 223 257 284 294
39 40 42 41 39 37 34 31 30 32 36 40 42 43 44 44 42 43 45 47 50 53 57 62 68 76 82 88 94 100 105 107 109 110 111 114 121 125 124 124 128 134 137 139 140 138 135 136 139 143 147 148 149 151 154 156 157 159 160 160 160 160 160 160 161 162 162 162 163 164 166 166 165 168 174 178 182 188 195 206 217 234 264 280 291
29 31 36 40 40 38 38 36 33 32 36 40 43 45 47 49 48 45 45 48 52 53 55 58 62 67 72 77 84 93 99 104 106 108 110 116 122 126 127 128 130 132 133 132 132 131 129 130 133 135 137 140 142 147 152 155 157 159 161 162 162 161 161 162 164 165 165 166 168 171 173 172 172 175 180 185 191 197 201 210 225 243 262 276 291
16 14 19 31 38 38 39 39 37 37 38 40 44 46 47 50 54 52 47 47 51 53 55 58 61 65 67 69 73 79 87 95 100 102 104 107 110 113 118 121 124 125 125 125 125 126 127 129 131 133 136 138 141 145 151 156 159 162 165 166 165 165 166 167 168 168 170 173 176 177 178 177 178 180 184 190 197 203 205 212 230 248 262 279 295
358 4 4 11 24 32 36 39 39 39 39 42 45 47 47 49 54 56 54 52 51 53 55 58 61 65 69 70 70 70 73 80 86 91 94 95 96 98 101 105 109 113 116 117 119 122 124 126 129 133 137 141 145 150 156 162 166 169 171 172 171 171 171 171 172 173 175 178 181 182 181 181 181 184 189 194 198 203 208 217 233 248 263 280 295
297 343 353 353 2 12 21 31 37 38 39 42 45 48 48 48 50 54 58 58 55 54 55 59 62 66 70 73 75 74 73 74 77 81 84 87 87 88 89 91 96 101 106 111 115 118 121 124 127 132 138 143 150 156 162 168 172 174 175 175 175 175 174 174 177 179 181 183 184 183 182 183 185 189 193 196 199 203 210 221 235 246 260 277 293
284 309 335 341 344 349 358 13 27 32 34 37 42 47 50 49 49 52 55 58 59 57 55 57 62 66 70 75 78 80 80 79 78 80 84 87 88 88 88 91 95 100 104 109 112 115 119 122 125 130 138 145 151 158 163 168 172 175 176 177 177 178 177 178 180 183 186 186 186 185 184 185 189 192 195 198 201 206 215 226 236 245 260 277 291
298 304 321 332 333 333 339 348 1 17 26 29 33 41 48 51 51 51 52 54 59 60 59 58 60 63 68 74 79 83 86 87 86 86 88 91 95 99 101 104 107 110 113 117 118 119 121 124 128 133 138 144 150 156 161 166 171 176 178 179 179 179 181 183 185 188 190 189 186 186 187 189 191 195 197 200 206 213 223 232 239 247 263 279 293
308 315 329 340 338 334 334 335 337 348 5 15 21 30 40 47 51 53 53 53 56 60 63 63 61 62 66 71 75 81 87 91 94 96 98 101 108 115 122 127 128 128 128 130 131 132 133 134 136 139 141 143 147 153 159 166 172 177 181 184 185 185 186 190 192 193 193 191 189 188 189 191 194 197 200 205 213 221 229 237 243 253 269 283 295
332 334 338 340 336 333 332 333 331 331 338 350 1 13 26 37 46 51 54 56 57 59 65 68 66 66 68 70 73 78 84 89 95 101 106 113 120 128 138 145 149 149 147 143 142 144 146 146 146 145 144 144 146 149 154 161 168 175 181 186 190 192 192 194 195 193 193 193 192 192 193 195 197 200 205 211 219 226 234 241 247 258 272 282 290
9 347 329 323 324 326 327 329 330 329 330 334 342 353 8 24 36 45 51 56 60 63 67 72 75 75 74 74 74 77 81 86 94 100 106 113 120 127 138 148 158 163 162 158 153 151 152 154 155 153 150 150 150 152 155 158 162 168 174 180 184 188 191 192 192 192 192 193 193 194 196 198 199 203 210 217 224 231 237 244 251 261 271 279 287
30 21 359 337 328 328 330 333 336 335 334 334 334 339 350 6 22 35 46 53 61 66 70 74 79 81 82 81 81 81 82 85 89 94 100 107 113 118 127 138 149 159 166 169 167 163 161 163 165 166 166 163 159 159 161 161 160 162 167 170 174 179 183 187 188 190 192 192 193 195 198 201 204 209 215 222 230 235 240 245 253 261 270 277 286
13 16 15 14 9 353 342 339 341 344 346 344 339 335 340 351 6 23 37 48 58 67 73 77 80 82 82 82 82 82 83 86 86 87 89 92 96 104 115 127 136 147 158 168 174 178 180 180 181 183 184 182 178 175 173 171 167 165 166 168 172 176 180 183 186 188 190 192 194 196 199 203 208 213 220 228 233 236 241 246 253 262 270 277 286
351 352 359 6 7 6 359 348 344 351 360 2 358 357 358 358 2 12 27 43 56 66 72 77 81 82 82 80 79 78 80 83 86 87 85 81 79 83 93 107 125 142 156 167 176 183 189 193 196 199 199 201 202 198 192 189 184 179 175 174 175 177 181 184 188 190 192 195 198 199 201 204 209 215 222 230 233 236 242 248 255 264 271 277 287
6 355 351 353 355 356 353 349 350 358 9 24 38 46 53 51 36 28 36 51 63 67 69 72 78 82 84 83 81 80 81 82 85 89 90 86 78 75 79 88 102 121 149 172 183 190 194 197 201 203 203 204 204 203 202 202 200 194 187 183 181 182 185 188 192 195 197 199 202 203 203 206 210 216 223 229 233 237 244 252 259 267 272 278 288
24 18 9 2 359 359 352 346 351 2 17 78 88 82 88 94 89 80 74 71 68 67 68 71 76 81 84 85 86 87 87 86 85 87 92 96 94 83 76 81 89 97 111 140 171 185 192 198 202 204 205 204 202 200 201 201 201 199 195 190 186 187 189 192 196 199 200 201 203 204 204 207 214 221 226 230 233 238 245 254 262 268 273 279 288